TimeEDT,TemperatureF,Dew PointF,Humidity,Sea Level PressureIn,VisibilityMPH,Wind Direction,Wind SpeedMPH,Gust SpeedMPH,PrecipitationIn,Events,Conditions,WindDirDegrees,DateUTC
12:15 AM,64.4,62.6,94,29.79,10.0,South,8.1,17.3,N/A,,Overcast,170,2013-04-12 04:15:00
12:35 AM,64.4,62.6,94,29.78,10.0,South,9.2,17.3,N/A,,Overcast,170,2013-04-12 04:35:00
12:55 AM,66.2,64.4,94,29.78,10.0,South,12.7,23.0,N/A,,Overcast,170,2013-04-12 04:55:00
1:15 AM,66.2,64.4,94,29.76,10.0,South,15.0,21.9,N/A,Thunderstorm,Thunderstorm,180,2013-04-12 05:15:00
1:35 AM,68.0,62.6,83,29.75,10.0,South,12.7,20.7,N/A,Rain,Light Rain,180,2013-04-12 05:35:00
1:55 AM,64.4,64.4,100,29.75,7.0,South,11.5,18.4,0.03,Rain-Thunderstorm,Light Thunderstorms and Rain,170,2013-04-12 05:55:00
2:15 AM,64.4,64.4,100,29.75,7.0,South,15.0,24.2,0.06,Rain-Thunderstorm,Light Thunderstorms and Rain,180,2013-04-12 06:15:00
2:35 AM,64.4,62.6,94,29.74,7.0,South,12.7,24.2,0.10,Rain,Rain,190,2013-04-12 06:35:00
2:55 AM,62.6,62.6,100,29.72,5.0,SSW,16.1,24.2,0.22,Rain,Rain,200,2013-04-12 06:55:00
3:15 AM,60.8,60.8,100,29.75,5.0,SW,12.7,21.9,0.12,Rain,Rain,230,2013-04-12 07:15:00
3:35 AM,60.8,60.8,100,29.75,7.0,SW,5.8,-,0.17,Rain,Rain,230,2013-04-12 07:35:00
3:55 AM,60.8,60.8,100,29.73,2.0,South,3.5,-,0.24,Rain,Rain,180,2013-04-12 07:55:00
4:15 AM,60.8,60.8,100,29.72,10.0,Calm,Calm,-,N/A,,Overcast,0,2013-04-12 08:15:00
4:35 AM,60.8,60.8,100,29.74,10.0,Calm,Calm,-,0.01,,Overcast,0,2013-04-12 08:35:00
4:55 AM,60.8,59.0,94,29.72,10.0,SW,6.9,-,0.01,,Mostly Cloudy,220,2013-04-12 08:55:00
5:15 AM,60.8,59.0,94,29.73,10.0,SSW,4.6,-,N/A,,Scattered Clouds,200,2013-04-12 09:15:00
5:35 AM,60.8,59.0,94,29.72,10.0,Calm,Calm,-,N/A,Rain,Rain,0,2013-04-12 09:35:00
5:55 AM,60.8,59.0,94,29.72,10.0,Calm,Calm,-,N/A,,Overcast,0,2013-04-12 09:55:00
6:15 AM,60.8,59.0,94,29.71,10.0,Calm,Calm,-,N/A,,Overcast,0,2013-04-12 10:15:00
6:35 AM,60.8,59.0,94,29.71,10.0,Calm,Calm,-,N/A,,Overcast,0,2013-04-12 10:35:00
6:55 AM,60.8,59.0,94,29.72,10.0,South,3.5,-,N/A,,Drizzle,180,2013-04-12 10:55:00
7:15 AM,60.8,59.0,94,29.71,10.0,South,5.8,-,N/A,,Overcast,190,2013-04-12 11:15:00
7:35 AM,62.6,60.8,94,29.71,10.0,SSW,10.4,16.1,N/A,,Overcast,200,2013-04-12 11:35:00
7:55 AM,62.6,60.8,94,29.71,10.0,SSW,11.5,-,N/A,,Overcast,200,2013-04-12 11:55:00
8:15 AM,62.6,60.8,94,29.73,10.0,SSW,9.2,-,N/A,,Overcast,210,2013-04-12 12:15:00
8:35 AM,62.6,60.8,94,29.73,10.0,SSW,8.1,-,N/A,,Overcast,210,2013-04-12 12:35:00
8:55 AM,62.6,60.8,94,29.74,10.0,SW,6.9,-,N/A,,Overcast,230,2013-04-12 12:55:00
9:15 AM,64.4,60.8,88,29.75,10.0,WSW,8.1,-,N/A,,Mostly Cloudy,240,2013-04-12 13:15:00
9:35 AM,66.2,60.8,83,29.74,10.0,SW,9.2,18.4,N/A,,Scattered Clouds,230,2013-04-12 13:35:00
9:55 AM,66.2,60.8,83,29.75,10.0,SW,10.4,20.7,N/A,,Scattered Clouds,230,2013-04-12 13:55:00
10:15 AM,68.0,60.8,78,29.75,10.0,WSW,11.5,-,N/A,,Scattered Clouds,240,2013-04-12 14:15:00
10:35 AM,68.0,60.8,78,29.74,10.0,SW,8.1,17.3,N/A,,Clear,230,2013-04-12 14:35:00
10:55 AM,69.8,59.0,68,29.75,10.0,West,9.2,17.3,N/A,,Scattered Clouds,260,2013-04-12 14:55:00
11:15 AM,69.8,55.4,60,29.76,10.0,WSW,10.4,-,0.01,,Scattered Clouds,250,2013-04-12 15:15:00
11:35 AM,71.6,55.4,57,29.76,10.0,WSW,5.8,-,0.01,,Scattered Clouds,250,2013-04-12 15:35:00
11:55 AM,71.6,55.4,57,29.76,10.0,West,10.4,17.3,0.01,,Clear,260,2013-04-12 15:55:00
12:15 PM,71.6,53.6,53,29.76,10.0,WNW,9.2,17.3,N/A,,Clear,290,2013-04-12 16:15:00
12:35 PM,71.6,51.8,50,29.75,10.0,WSW,8.1,17.3,N/A,,Clear,250,2013-04-12 16:35:00
12:55 PM,73.4,51.8,47,29.74,10.0,West,8.1,18.4,N/A,,Scattered Clouds,260,2013-04-12 16:55:00
1:15 PM,73.4,53.6,50,29.74,10.0,WNW,6.9,-,N/A,,Mostly Cloudy,300,2013-04-12 17:15:00
1:35 PM,73.4,51.8,47,29.73,10.0,NW,6.9,-,N/A,,Scattered Clouds,320,2013-04-12 17:35:00
1:55 PM,73.4,53.6,50,29.73,10.0,WNW,9.2,16.1,N/A,,Scattered Clouds,290,2013-04-12 17:55:00
2:15 PM,77.0,53.6,44,29.72,10.0,West,8.1,-,N/A,,Clear,270,2013-04-12 18:15:00
2:35 PM,77.0,51.8,41,29.71,10.0,WNW,5.8,-,N/A,,Clear,290,2013-04-12 18:35:00
2:55 PM,77.0,51.8,41,29.71,10.0,WNW,6.9,-,N/A,,Clear,290,2013-04-12 18:55:00
3:15 PM,77.0,51.8,41,29.70,10.0,WNW,4.6,-,N/A,,Scattered Clouds,290,2013-04-12 19:15:00
3:35 PM,77.0,48.2,36,29.71,10.0,WNW,12.7,19.6,N/A,,Clear,300,2013-04-12 19:35:00
3:55 PM,75.2,48.2,38,29.71,10.0,NW,15.0,23.0,N/A,,Clear,320,2013-04-12 19:55:00
4:15 PM,73.4,46.4,38,29.71,10.0,WNW,10.4,23.0,N/A,,Clear,290,2013-04-12 20:15:00
4:35 PM,73.4,44.6,36,29.72,10.0,WNW,10.4,17.3,N/A,,Clear,290,2013-04-12 20:35:00
4:55 PM,73.4,42.8,33,29.72,10.0,WNW,12.7,23.0,N/A,,Clear,290,2013-04-12 20:55:00
5:15 PM,71.6,41.0,33,29.73,10.0,NW,15.0,26.5,N/A,,Clear,310,2013-04-12 21:15:00
5:35 PM,71.6,41.0,33,29.74,10.0,WNW,6.9,17.3,N/A,,Clear,290,2013-04-12 21:35:00
5:55 PM,71.6,37.4,29,29.75,10.0,WNW,11.5,18.4,N/A,,Clear,290,2013-04-12 21:55:00
6:15 PM,69.8,33.8,27,29.75,10.0,WNW,9.2,24.2,N/A,,Clear,290,2013-04-12 22:15:00
6:35 PM,69.8,35.6,28,29.75,10.0,West,10.4,19.6,N/A,,Clear,280,2013-04-12 22:35:00
6:55 PM,68.0,33.8,28,29.76,10.0,WNW,9.2,17.3,N/A,,Clear,290,2013-04-12 22:55:00
7:15 PM,66.2,33.8,30,29.77,10.0,WNW,13.8,20.7,N/A,,Clear,290,2013-04-12 23:15:00
7:35 PM,64.4,33.8,32,29.78,10.0,WNW,15.0,21.9,N/A,,Clear,290,2013-04-12 23:35:00
7:55 PM,62.6,33.8,34,29.79,10.0,WNW,9.2,-,N/A,,Clear,300,2013-04-12 23:55:00
8:15 PM,60.8,33.8,36,29.80,10.0,WSW,5.8,-,N/A,,Clear,240,2013-04-13 00:15:00
8:35 PM,60.8,33.8,36,29.82,10.0,Calm,Calm,-,N/A,,Clear,0,2013-04-13 00:35:00
8:55 PM,59.0,35.6,42,29.84,10.0,WNW,3.5,-,N/A,,Clear,290,2013-04-13 00:55:00
9:15 PM,59.0,37.4,45,29.85,10.0,WNW,4.6,-,N/A,,Clear,300,2013-04-13 01:15:00
9:35 PM,59.0,39.2,48,29.88,10.0,WNW,3.5,-,N/A,,Clear,290,2013-04-13 01:35:00
9:55 PM,55.4,39.2,54,29.89,10.0,WSW,4.6,-,N/A,,Clear,250,2013-04-13 01:55:00
10:15 PM,55.4,37.4,51,29.89,10.0,WNW,5.8,-,N/A,,Clear,290,2013-04-13 02:15:00
10:35 PM,55.4,37.4,51,29.90,10.0,WNW,5.8,-,N/A,,Clear,300,2013-04-13 02:35:00
10:55 PM,55.4,37.4,51,29.88,10.0,NW,6.9,-,N/A,,Clear,310,2013-04-13 02:55:00
11:15 PM,55.4,37.4,51,29.89,10.0,Calm,Calm,-,N/A,,Clear,0,2013-04-13 03:15:00
11:35 PM,53.6,37.4,54,29.89,10.0,WNW,4.6,-,N/A,,Clear,290,2013-04-13 03:35:00
11:55 PM,55.4,37.4,51,29.88,10.0,WNW,9.2,16.1,N/A,,Clear,300,2013-04-13 03:55:00